Regional Weather Roundup
Issued by NWS

Home | Current Version | Previous Version | Text Only | Print | Product List | Glossary On
Versions: 1 2 3 4 5 6 7 8 9 10 11 12 13 14 15 16 17 18 19 20 21 22 23 24 25 26 27
000
ASUS45 KSLC 222010
RWRUT

UTAH REGIONAL WEATHER ROUNDUP
NATIONAL WEATHER SERVICE SALT LAKE CITY UT
200 PM MDT FRI SEP 22 2017

UTZ001>011-023>025-222100-

NORTHERN UTAH

CITY           SKY/WX    TMP DP  RH WIND       PRES   REMARKS
BRIGHAM CITY   CLOUDY    47  37  68 CALM      29.93S
HILL AFB       CLOUDY    44  39  83 N6        29.91S
LOGAN          CLOUDY    50  39  66 N6        29.91S
OGDEN          CLOUDY    45  39  79 NW5       29.91F
SALT LAKE CITY CLOUDY    51  41  68 NW12      29.90F
TOOELE VALLEY  CLOUDY    50  41  71 N8        29.91S
WENDOVER       CLOUDY    49  35  58 E6        29.93S
HEBER CITY     MOSUNNY   54  32  43 SW20      29.83F
WEST JORDAN    CLOUDY    48  46  91 NW15      29.90F

$$

UTZ011>015-024>027-222100-

CENTRAL/NORTHEAST UTAH

CITY           SKY/WX    TMP DP  RH WIND       PRES   REMARKS
PROVO AIRPORT  PTSUNNY   52  37  56 W5        29.88F
MOAB/CANYONLAN MOSUNNY   77  29  17 SW26G35   29.70F
DELTA          PTSUNNY   50  36  57 NW7       29.90S
PRICE          PTSUNNY   66  27  23 S15G22    29.77F
ROOSEVELT      SUNNY     66  32  28 W12       29.78F
VERNAL         MOSUNNY   67  36  31 MISG      29.76F

$$

UTZ013>016-019>022-027-222100-

SOUTHERN UTAH

CITY           SKY/WX    TMP DP  RH WIND       PRES   REMARKS
BRYCE CANYON   PTSUNNY   57  25  29 S22G28    29.90S
CEDAR CITY     SUNNY     56  41  57 VRB7      29.86S
MILFORD        MOSUNNY   52  40  63 NE6       29.87F
ST GEORGE      PTCLDY    70  29  21 W14G21    29.81F
HANKSVILLE     MOSUNNY   73  27  17 SW24      29.75S
BLANDING         N/A     70  30  23 S21G39    29.92F

$$

REGIONAL REPORTS     COLORADO/ARIZONA

CITY           SKY/WX    TMP DP  RH WIND       PRES   REMARKS
CRAIG, CO      LGT RAIN  59  40  49 SW5       29.86F
GRAND JUNCTION MOSUNNY   75  28  17 SW20G29   29.75F
RIFLE, CO      MOSUNNY   74  29  19 SW21G33   29.79F
MONTROSE, CO   MOSUNNY   76  31  19 S21G31    29.84F
CORTEZ, CO     SUNNY     76  27  16 S24G32    29.88F
PAGE, AZ       SUNNY     76  24  14 SW10G24   29.73F
GRAND CANYON   MOSUNNY   65  29  25 SW23G32   29.91F
KINGMAN, AZ    SUNNY     71  25  17 W16G24    29.83F
FLAGSTAFF, AZ  MOSUNNY   59  41  51 SW18G32   29.96F

$$

REGIONAL REPORTS    NEVADA/IDAHO/WYOMING

CITY           SKY/WX    TMP DP  RH WIND       PRES   REMARKS
LAS VEGAS, NV  MOSUNNY   72  29  20 E3        29.81F
ELY, NY        PTSUNNY   37  32  82 S5        29.94S WCI  33
ELKO, NV       CLOUDY    41  33  73 CALM      29.95R
POCATELLO, ID  PTSUNNY   45  36  70 W13       29.95S
BURLEY, ID     MOSUNNY   49  34  56 W10G17    29.93S
FORT BRIDGER,  CLOUDY    48  32  54 SW6       29.91R
EVANSTON, WY   MOSUNNY   48  33  56 SW13G22   29.87F
ROCK SPRINGS,  CLOUDY    53  42  66 NE13      29.86F
KEMMERER, WY     N/A     52  28  40 SW17G24   29.87F

$$




USA.gov is the U.S. government's official web portal to all federal, state and local government web resources and services.